Location: Kottag?dem
(16.8319°N, 80.6320°E)
Time: 11:27:47
(UTC+00:00)

Hubble Space Telescope - Visible Passes

Search period start: 12 August 2022 00:00
Search period end: 22 August 2022 00:00
Orbit: 532 x 535 km, 28.5° (Epoch: 11 August)

Date Brightness Start Highest point End Pass type
(mag) Time Alt. Az. Time Alt. Az. Time Alt. Az.
12 Aug 3.2 14:00:15 10° NW 14:02:48 16° N 14:05:22 10° NE visible
12 Aug 3.9 15:41:02 10° NW 15:41:31 12° NW 15:41:31 12° NW visible
13 Aug 3.1 13:48:16 10° NW 13:50:55 16° N 13:53:34 10° NE visible
13 Aug 3.5 15:28:54 10° NW 15:30:01 16° NW 15:30:01 16° NW visible
14 Aug 3.0 13:36:12 10° NW 13:39:01 18° N 13:41:49 10° NE visible
14 Aug 3.1 15:16:45 10° NW 15:18:30 22° NW 15:18:30 22° NW visible
15 Aug 2.8 13:24:07 10° NW 13:27:06 19° N 13:30:05 10° ENE visible
15 Aug 2.5 15:04:38 10° NW 15:07:00 30° NW 15:07:00 30° NW visible
16 Aug 1.7 14:52:31 10° WNW 14:55:33 44° NW 14:55:33 44° NW visible
17 Aug 0.9 14:40:27 10° WNW 14:44:07 69° NW 14:44:07 69° NW visible
18 Aug 0.6 14:28:24 10° WNW 14:32:30 78° SSW 14:32:45 74° SSE visible
19 Aug 1.0 14:16:23 10° WNW 14:20:26 58° SSW 14:21:25 43° SSE visible
20 Aug 1.5 14:04:27 10° W 14:08:21 42° SSW 14:10:09 26° SSE visible
21 Aug 2.1 13:52:35 10° W 13:56:15 31° SSW 13:58:57 16° SSE visible
